,,Stat6,,Stat2,,Stat8,,Stat9,,Stat10,,Wind1,,Wind1,
time,status,PA1M_AVG,status,PR1M_SUM,status,RH1M_AVG,status,SR1M_AVG,status,TA1M_AVG,status,W1dAve1m,status,W1sAve1m,
2007-04-13, 00:00:00,VALID,917.828,VALID,0,VALID,100,VALID,-0.0509425,VALID,20.6112,VALID,36,VALID,0.71875,
2007-04-13, 00:01:00,VALID,917.82,VALID,0,VALID,100,VALID,-0.0169808,VALID,20.579,VALID,26,VALID,0.588299,
2007-04-13, 00:02:00,VALID,917.814,VALID,0,VALID,100,VALID,0,VALID,20.5527,VALID,25,VALID,0.449929,
2007-04-13, 00:03:00,VALID,917.82,VALID,0,VALID,100,VALID,-0.0169808,VALID,20.566,VALID,25,VALID,0.663699,
2007-04-13, 00:04:00,VALID,917.82,VALID,0,VALID,100,VALID,-0.0339617,VALID,20.579,VALID,25,VALID,0.383145,
2007-04-13, 00:05:00,VALID,917.828,VALID,0,VALID,100,VALID,-0.0169808,VALID,20.5984,VALID,25,VALID,0.10174,
2007-04-13, 00:06:00,VALID,917.839,VALID,0,VALID,100,VALID,-0.0339617,VALID,20.6057,VALID,25,VALID,0,
2007-04-13, 00:07:00,VALID,917.85,VALID,0,VALID,100,VALID,-0.0169808,VALID,20.5984,VALID,25,VALID,0,
2007-04-13, 00:08:00,VALID,917.85,VALID,0,VALID,100,VALID,-0.0169808,VALID,20.5852,VALID,25,VALID,0,
2007-04-13, 00:09:00,VALID,917.852,VALID,0,VALID,100,VALID,-0.0169808,VALID,20.5852,VALID,25,VALID,0,
2007-04-13, 00:10:00,VALID,917.86,VALID,0,VALID,100,VALID,-0.0339617,VALID,20.5919,VALID,25,VALID,0,
2007-04-13, 00:11:00,VALID,917.859,VALID,0,VALID,100,VALID,-0.0509425,VALID,20.5922,VALID,25,VALID,0,
2007-04-13, 00:12:00,VALID,917.85,VALID,0,VALID,100,VALID,-0.0679233,VALID,20.5952,VALID,25,VALID,0,
2007-04-13, 00:13:00,VALID,917.853,VALID,0,VALID,100,VALID,-0.0339617,VALID,20.5952,VALID,25,VALID,0,
2007-04-13, 00:14:00,VALID,917.835,VALID,0,VALID,100,VALID,-0.0339617,VALID,20.6047,VALID,25,VALID,0,
2007-04-13, 00:15:00,VALID,917.841,VALID,0,VALID,100,VALID,-0.0509425,VALID,20.6184,VALID,25,VALID,0,
2007-04-13, 00:16:00,VALID,917.827,VALID,0,VALID,100,VALID,-0.0509425,VALID,20.6247,VALID,25,VALID,0,
2007-04-13, 00:17:00,VALID,917.817,VALID,0,VALID,100,VALID,-0.0169808,VALID,20.6306,VALID,25,VALID,0,
2007-04-13, 00:18:00,VALID,917.818,VALID,0,VALID,100,VALID,-0.0339617,VALID,20.6439,VALID,25,VALID,0,
2007-04-13, 00:19:00,VALID,917.817,VALID,0,VALID,100,VALID,-0.0169808,VALID,20.6474,VALID,25,VALID,0.0276989,
2007-04-13, 00:20:00,VALID,917.805,VALID,0,VALID,100,VALID,-0.0169808,VALID,20.6433,VALID,25,VALID,0.0410156,
2007-04-13, 00:21:00,VALID,917.791,VALID,0,VALID,100,VALID,-0.0169808,VALID,20.6533,VALID,25,VALID,0.225195,
2007-04-13, 00:22:00,VALID,917.797,VALID,0,VALID,100,VALID,-0.0509425,VALID,20.6633,VALID,25,VALID,0.135231,
2007-04-13, 00:23:00,VALID,917.803,VALID,0,VALID,100,VALID,-0.0339617,VALID,20.6898,VALID,25,VALID,0.0662287,
2007-04-13, 00:24:00,VALID,917.782,VALID,0,VALID,100,VALID,0,VALID,20.6993,VALID,25,VALID,0.166349,
2007-04-13, 00:25:00,VALID,917.782,VALID,0,VALID,100,VALID,-0.0339617,VALID,20.7055,VALID,25,VALID,0.202567,
2007-04-13, 00:26:00,VALID,917.776,VALID,0,VALID,100,VALID,0,VALID,20.6958,VALID,25,VALID,0.0734747,
2007-04-13, 00:27:00,VALID,917.772,VALID,0,VALID,100,VALID,-0.0509425,VALID,20.6893,VALID,25,VALID,0,
2007-04-13, 00:28:00,VALID,917.758,VALID,0,VALID,100,VALID,-0.0169808,VALID,20.712,VALID,25,VALID,0.0322266,
2007-04-13, 00:29:00,VALID,917.745,VALID,0,VALID,100,VALID,-0.0339617,VALID,20.6828,VALID,25,VALID,0.00372024,
2007-04-13, 00:30:00,VALID,917.733,VALID,0,VALID,100,VALID,-0.0509425,VALID,20.6928,VALID,25,VALID,0.0078125,
2007-04-13, 00:31:00,VALID,917.714,VALID,0,VALID,100,VALID,-0.0339617,VALID,20.6861,VALID,25,VALID,0.065625,
2007-04-13, 00:32:00,VALID,917.712,VALID,0,VALID,100,VALID,-0.0339617,VALID,20.6768,VALID,25,VALID,0.174733,
2007-04-13, 00:33:00,VALID,917.694,VALID,0,VALID,100,VALID,-0.0169808,VALID,20.6761,VALID,25,VALID,0.0648619,
2007-04-13, 00:34:00,VALID,917.687,VALID,0,VALID,100,VALID,-0.0509425,VALID,20.6896,VALID,25,VALID,0,
2007-04-13, 00:35:00,VALID,917.67,VALID,0,VALID,100,VALID,-0.0339617,VALID,20.7053,VALID,25,VALID,0,
2007-04-13, 00:36:00,VALID,917.656,VALID,0,VALID,100,VALID,-0.0339617,VALID,20.7088,VALID,26,VALID,0.115189,
2007-04-13, 00:37:00,VALID,917.631,VALID,0,VALID,100,VALID,0,VALID,20.6598,VALID,26,VALID,0.110795,
2007-04-13, 00:38:00,VALID,917.624,VALID,0,VALID,100,VALID,0,VALID,20.6306,VALID,26,VALID,0.0101744,
2007-04-13, 00:39:00,VALID,917.607,VALID,0,VALID,100,VALID,-0.0169808,VALID,20.5884,VALID,26,VALID,0,
2007-04-13, 00:40:00,VALID,917.59,VALID,0,VALID,100,VALID,-0.0339617,VALID,20.5787,VALID,26,VALID,0,
2007-04-13, 00:41:00,VALID,917.595,VALID,0,VALID,100,VALID,-0.0339617,VALID,20.5914,VALID,26,VALID,0,
2007-04-13, 00:42:00,VALID,917.567,VALID,0,VALID,100,VALID,0,VALID,20.6174,VALID,26,VALID,0,
2007-04-13, 00:43:00,VALID,917.553,VALID,0,VALID,100,VALID,0,VALID,20.6306,VALID,26,VALID,0.0807884,
2007-04-13, 00:44:00,VALID,917.551,VALID,0,VALID,100,VALID,0,VALID,20.6569,VALID,26,VALID,0.197218,
2007-04-13, 00:45:00,VALID,917.554,VALID,0,VALID,100,VALID,0,VALID,20.6469,VALID,21,VALID,0.44112,
2007-04-13, 00:46:00,VALID,917.554,VALID,0,VALID,100,VALID,-0.0339617,VALID,20.5887,VALID,13,VALID,0.558503,
2007-04-13, 00:47:00,VALID,917.551,VALID,0,VALID,100,VALID,0,VALID,20.5787,VALID,32,VALID,0.776972,
2007-04-13, 00:48:00,VALID,917.55,VALID,0,VALID,100,VALID,0,VALID,20.5947,VALID,21,VALID,0.566311,
2007-04-13, 00:49:00,VALID,917.529,VALID,0,VALID,100,VALID,-0.0169808,VALID,20.6112,VALID,40,VALID,0.813834,
2007-04-13, 00:50:00,VALID,917.508,VALID,0,VALID,100,VALID,-0.0169808,VALID,20.5722,VALID,38,VALID,0.892805,
2007-04-13, 00:51:00,VALID,917.484,VALID,0,VALID,100,VALID,0.0169808,VALID,20.5657,VALID,39,VALID,0.580788,
2007-04-13, 00:52:00,VALID,917.457,VALID,0,VALID,100,VALID,0,VALID,20.5655,VALID,41,VALID,0.641768,
2007-04-13, 00:53:00,VALID,917.427,VALID,0,VALID,100,VALID,-0.0169808,VALID,20.556,VALID,32,VALID,0.467448,
2007-04-13, 00:54:00,VALID,917.397,VALID,0,VALID,100,VALID,-0.0339617,VALID,20.5398,VALID,32,VALID,0.370276,
2007-04-13, 00:55:00,VALID,917.383,VALID,0,VALID,100,VALID,-0.0169808,VALID,20.5565,VALID,40,VALID,0.570126,
2007-04-13, 00:56:00,VALID,917.356,VALID,0,VALID,100,VALID,0,VALID,20.5625,VALID,40,VALID,0.556108,
2007-04-13, 00:57:00,VALID,917.328,VALID,0,VALID,100,VALID,-0.0339617,VALID,20.5597,VALID,42,VALID,0.703646,
2007-04-13, 00:58:00,VALID,917.306,VALID,0,VALID,100,VALID,-0.0509425,VALID,20.5627,VALID,42,VALID,0.674023,
2007-04-13, 00:59:00,VALID,917.301,VALID,0,VALID,100,VALID,-0.0169808,VALID,20.5495,VALID,42,VALID,0.72202,
2007-04-13, 01:00:00,VALID,917.298,VALID,0,VALID,100,VALID,-0.0169808,VALID,20.53,VALID,42,VALID,0.693314,
2007-04-13, 01:01:00,VALID,917.292,VALID,0,VALID,100,VALID,-0.0169808,VALID,20.5268,VALID,42,VALID,0.759629,
2007-04-13, 01:02:00,VALID,917.283,VALID,0,VALID,100,VALID,-0.0169808,VALID,20.5035,VALID,42,VALID,0.337081,
2007-04-13, 01:03:00,VALID,917.261,VALID,0,VALID,100,VALID,-0.0339617,VALID,20.5041,VALID,42,VALID,0.247266,
2007-04-13, 01:04:00,VALID,917.245,VALID,0,VALID,100,VALID,-0.0169808,VALID,20.4751,VALID,42,VALID,0.295117,
2007-04-13, 01:05:00,VALID,917.217,VALID,0,VALID,100,VALID,-0.0169808,VALID,20.4651,VALID,46,VALID,0.468932,
2007-04-13, 01:06:00,VALID,917.201,VALID,0,VALID,100,VALID,0,VALID,20.4489,VALID,61,VALID,0.471912,
2007-04-13, 01:07:00,VALID,917.188,VALID,0,VALID,100,VALID,-0.0339617,VALID,20.4489,VALID,68,VALID,0.630526,
2007-04-13, 01:08:00,VALID,917.166,VALID,0,VALID,100,VALID,0,VALID,20.4427,VALID,67,VALID,0.672585,
2007-04-13, 01:09:00,VALID,917.147,VALID,0,VALID,100,VALID,-0.0509425,VALID,20.4427,VALID,64,VALID,0.634588,
2007-04-13, 01:10:00,VALID,917.131,VALID,0,VALID,100,VALID,-0.0169808,VALID,20.4456,VALID,42,VALID,0.686435,
2007-04-13, 01:11:00,VALID,917.115,VALID,0,VALID,100,VALID,0,VALID,20.4359,VALID,40,VALID,0.621804,
2007-04-13, 01:12:00,VALID,917.103,VALID,0,VALID,100,VALID,0,VALID,20.4286,VALID,32,VALID,0.713194,
2007-04-13, 01:13:00,VALID,917.101,VALID,0,VALID,100,VALID,-0.0169808,VALID,20.4359,VALID,32,VALID,0.8125,
2007-04-13, 01:14:00,VALID,917.07,VALID,0,VALID,100,VALID,-0.118866,VALID,20.405,VALID,31,VALID,0.837003,
2007-04-13, 01:15:00,VALID,917.067,VALID,0,VALID,100,VALID,-0.0849042,VALID,20.3823,VALID,31,VALID,0.50327,
2007-04-13, 01:16:00,VALID,917.051,VALID,0,VALID,100,VALID,-0.101885,VALID,20.3658,VALID,31,VALID,0.503634,
2007-04-13, 01:17:00,VALID,917.022,VALID,0,VALID,100,VALID,-0.0849042,VALID,20.3555,VALID,31,VALID,0.229514,
2007-04-13, 01:18:00,VALID,917.029,VALID,0,VALID,100,VALID,-0.0679233,VALID,20.3531,VALID,31,VALID,0.230945,
2007-04-13, 01:19:00,VALID,917.003,VALID,0,VALID,100,VALID,-0.0849042,VALID,20.3561,VALID,31,VALID,0.015625,
2007-04-13, 01:20:00,VALID,916.986,VALID,0,VALID,100,VALID,-0.101885,VALID,20.3501,VALID,31,VALID,0.0621094,
2007-04-13, 01:21:00,VALID,916.971,VALID,0,VALID,100,VALID,-0.118866,VALID,20.3368,VALID,31,VALID,0.046875,
2007-04-13, 01:22:00,VALID,916.945,VALID,0,VALID,100,VALID,-0.118866,VALID,20.3463,VALID,31,VALID,0.0102307,
2007-04-13, 01:23:00,VALID,916.941,VALID,0,VALID,100,VALID,-0.101885,VALID,20.3496,VALID,31,VALID,0,
2007-04-13, 01:24:00,VALID,916.946,VALID,0,VALID,100,VALID,-0.118866,VALID,20.3563,VALID,31,VALID,0,
2007-04-13, 01:25:00,VALID,916.919,VALID,0,VALID,100,VALID,-0.118866,VALID,20.3493,VALID,31,VALID,0,
2007-04-13, 01:26:00,VALID,916.905,VALID,0,VALID,100,VALID,-0.101885,VALID,20.3368,VALID,31,VALID,0,
2007-04-13, 01:27:00,VALID,916.897,VALID,0,VALID,100,VALID,-0.101885,VALID,20.3333,VALID,31,VALID,0.234012,
2007-04-13, 01:28:00,VALID,916.887,VALID,0,VALID,100,VALID,-0.101885,VALID,20.3393,VALID,31,VALID,0.0198864,
2007-04-13, 01:29:00,VALID,916.869,VALID,0,VALID,100,VALID,0.0169808,VALID,20.361,VALID,31,VALID,0.00121528,
2007-04-13, 01:30:00,VALID,916.862,VALID,0,VALID,100,VALID,0,VALID,20.3643,VALID,31,VALID,0,
2007-04-13, 01:31:00,VALID,916.852,VALID,0,VALID,100,VALID,0,VALID,20.3448,VALID,31,VALID,0,
2007-04-13, 01:32:00,VALID,916.838,VALID,0,VALID,100,VALID,0,VALID,20.345,VALID,31,VALID,0,
2007-04-13, 01:33:00,VALID,916.809,VALID,0,VALID,100,VALID,-0.0169808,VALID,20.3123,VALID,31,VALID,0,
2007-04-13, 01:34:00,VALID,916.791,VALID,0,VALID,100,VALID,-0.0169808,VALID,20.2964,VALID,31,VALID,0,
2007-04-13, 01:35:00,VALID,916.768,VALID,0,VALID,100,VALID,0,VALID,20.2931,VALID,31,VALID,0,
2007-04-13, 01:36:00,VALID,916.742,VALID,0,VALID,100,VALID,0,VALID,20.3061,VALID,31,VALID,0,
2007-04-13, 01:37:00,VALID,916.721,VALID,0,VALID,100,VALID,-0.0509425,VALID,20.3126,VALID,31,VALID,0,
2007-04-13, 01:38:00,VALID,916.701,VALID,0,VALID,100,VALID,-0.0169808,VALID,20.3191,VALID,31,VALID,0,
2007-04-13, 01:39:00,VALID,916.692,VALID,0,VALID,100,VALID,0,VALID,20.3193,VALID,31,VALID,0,
2007-04-13, 01:40:00,VALID,916.686,VALID,0,VALID,100,VALID,-0.0339617,VALID,20.2964,VALID,31,VALID,0,
2007-04-13, 01:41:00,VALID,916.662,VALID,0,VALID,100,VALID,-0.0339617,VALID,20.2901,VALID,31,VALID,0,
2007-04-13, 01:42:00,VALID,916.647,VALID,0,VALID,100,VALID,-0.0509425,VALID,20.2704,VALID,31,VALID,0,
2007-04-13, 01:43:00,VALID,916.639,VALID,0,VALID,100,VALID,-0.0339617,VALID,20.2801,VALID,31,VALID,0,
2007-04-13, 01:44:00,VALID,916.624,VALID,0,VALID,100,VALID,-0.0169808,VALID,20.2934,VALID,31,VALID,0,
2007-04-13, 01:45:00,VALID,916.634,VALID,0,VALID,100,VALID,-0.0339617,VALID,20.2929,VALID,31,VALID,0,
2007-04-13, 01:46:00,VALID,916.613,VALID,0,VALID,100,VALID,0,VALID,20.2866,VALID,31,VALID,0,
2007-04-13, 01:47:00,VALID,916.596,VALID,0,VALID,100,VALID,0,VALID,20.2866,VALID,31,VALID,0,
2007-04-13, 01:48:00,VALID,916.569,VALID,0,VALID,100,VALID,-0.0339617,VALID,20.2766,VALID,31,VALID,0,
2007-04-13, 01:49:00,VALID,916.558,VALID,0,VALID,100,VALID,-0.0509425,VALID,20.2701,VALID,31,VALID,0,
2007-04-13, 01:50:00,VALID,916.54,VALID,0,VALID,100,VALID,-0.0169808,VALID,20.2704,VALID,31,VALID,0,
2007-04-13, 01:51:00,VALID,916.525,VALID,0,VALID,100,VALID,0,VALID,20.2572,VALID,31,VALID,0,
2007-04-13, 01:52:00,VALID,916.519,VALID,0,VALID,100,VALID,-0.0169808,VALID,20.2477,VALID,31,VALID,0.0081936,
2007-04-13, 01:53:00,VALID,916.515,VALID,0,VALID,100,VALID,-0.0169808,VALID,20.2477,VALID,31,VALID,0.2371,
2007-04-13, 01:54:00,VALID,916.509,VALID,0,VALID,100,VALID,0.0169808,VALID,20.225,VALID,31,VALID,0.275977,
2007-04-13, 01:55:00,VALID,916.499,VALID,0,VALID,100,VALID,0,VALID,20.2117,VALID,55,VALID,0.392578,
2007-04-13, 01:56:00,VALID,916.484,VALID,0,VALID,100,VALID,0,VALID,20.1917,VALID,76,VALID,0.348656,
2007-04-13, 01:57:00,VALID,916.479,VALID,0,VALID,100,VALID,-0.0169808,VALID,20.1888,VALID,76,VALID,0.462936,
2007-04-13, 01:58:00,VALID,916.483,VALID,0,VALID,100,VALID,-0.0169808,VALID,20.1763,VALID,112,VALID,0.59718,
2007-04-13, 01:59:00,VALID,916.479,VALID,0,VALID,100,VALID,-0.0169808,VALID,20.1663,VALID,167,VALID,0.68045,
2007-04-13, 02:00:00,VALID,916.488,VALID,0,VALID,100,VALID,0,VALID,20.1471,VALID,173,VALID,0.623611,
2007-04-13, 02:01:00,VALID,916.489,VALID,0,VALID,100,VALID,0,VALID,20.1341,VALID,177,VALID,0.594097,
2007-04-13, 02:02:00,VALID,916.499,VALID,0,VALID,100,VALID,-0.0169808,VALID,20.1211,VALID,179,VALID,0.473837,
2007-04-13, 02:03:00,VALID,916.491,VALID,0,VALID,100,VALID,0,VALID,20.1211,VALID,179,VALID,0.241257,
2007-04-13, 02:04:00,VALID,916.492,VALID,0,VALID,100,VALID,-0.0169808,VALID,20.1144,VALID,179,VALID,0.474564,
2007-04-13, 02:05:00,VALID,916.467,VALID,0,VALID,100,VALID,-0.0169808,VALID,20.1276,VALID,179,VALID,0.0792683,
2007-04-13, 02:06:00,VALID,916.455,VALID,0,VALID,100,VALID,0,VALID,20.1379,VALID,179,VALID,0.0276042,
2007-04-13, 02:07:00,VALID,916.448,VALID,0,VALID,100,VALID,0.0169808,VALID,20.1274,VALID,179,VALID,0,
2007-04-13, 02:08:00,VALID,916.445,VALID,0,VALID,100,VALID,-0.0169808,VALID,20.1309,VALID,179,VALID,0,
2007-04-13, 02:09:00,VALID,916.438,VALID,0,VALID,100,VALID,0,VALID,20.1271,VALID,179,VALID,0,
2007-04-13, 02:10:00,VALID,916.428,VALID,0,VALID,100,VALID,0,VALID,20.1471,VALID,179,VALID,0,
2007-04-13, 02:11:00,VALID,916.425,VALID,0,VALID,100,VALID,0,VALID,20.1506,VALID,179,VALID,0.0454545,
2007-04-13, 02:12:00,VALID,916.424,VALID,0,VALID,100,VALID,0.0169808,VALID,20.1568,VALID,179,VALID,0,
2007-04-13, 02:13:00,VALID,916.422,VALID,0,VALID,100,VALID,0.0169808,VALID,20.1568,VALID,179,VALID,0.0532986,
2007-04-13, 02:14:00,VALID,916.416,VALID,0,VALID,100,VALID,0,VALID,20.1663,VALID,179,VALID,0.115234,
2007-04-13, 02:15:00,VALID,916.42,VALID,0,VALID,100,VALID,0,VALID,20.1698,VALID,179,VALID,0.275298,
2007-04-13, 02:16:00,VALID,916.413,VALID,0,VALID,100,VALID,0,VALID,20.1666,VALID,179,VALID,0.0929487,
2007-04-13, 02:17:00,VALID,916.417,VALID,0,VALID,100,VALID,0.0339617,VALID,20.1895,VALID,179,VALID,0.00400152,
2007-04-13, 02:18:00,VALID,916.423,VALID,0,VALID,100,VALID,-0.0169808,VALID,20.1982,VALID,179,VALID,0,
2007-04-13, 02:19:00,VALID,916.419,VALID,0,VALID,100,VALID,0,VALID,20.2085,VALID,179,VALID,0.00130208,
2007-04-13, 02:20:00,VALID,916.409,VALID,0,VALID,100,VALID,0,VALID,20.212,VALID,179,VALID,0,
2007-04-13, 02:21:00,VALID,916.41,VALID,0,VALID,100,VALID,0.0169808,VALID,20.225,VALID,179,VALID,0,
2007-04-13, 02:22:00,VALID,916.418,VALID,0,VALID,100,VALID,0,VALID,20.225,VALID,179,VALID,0,
2007-04-13, 02:23:00,VALID,916.422,VALID,0,VALID,100,VALID,-0.0169808,VALID,20.2444,VALID,179,VALID,0,
2007-04-13, 02:24:00,VALID,916.419,VALID,0,VALID,100,VALID,-0.0169808,VALID,20.2607,VALID,179,VALID,0,
2007-04-13, 02:25:00,VALID,916.405,VALID,0,VALID,100,VALID,-0.0509425,VALID,20.2672,VALID,179,VALID,0,
2007-04-13, 02:26:00,VALID,916.394,VALID,0,VALID,100,VALID,-0.0169808,VALID,20.2769,VALID,179,VALID,0,
2007-04-13, 02:27:00,VALID,916.408,VALID,0,VALID,100,VALID,-0.0169808,VALID,20.2736,VALID,179,VALID,0.0303416,
2007-04-13, 02:28:00,VALID,916.394,VALID,0,VALID,100,VALID,-0.0169808,VALID,20.2736,VALID,179,VALID,0.0882994,
2007-04-13, 02:29:00,VALID,916.403,VALID,0,VALID,100,VALID,0,VALID,20.2736,VALID,179,VALID,0.101953,
2007-04-13, 02:30:00,VALID,916.409,VALID,0,VALID,100,VALID,-0.0169808,VALID,20.2637,VALID,179,VALID,0.0633878,
2007-04-13, 02:31:00,VALID,916.412,VALID,0,VALID,100,VALID,0,VALID,20.2315,VALID,179,VALID,0.275841,
2007-04-13, 02:32:00,VALID,916.418,VALID,0,VALID,100,VALID,0,VALID,20.2344,VALID,179,VALID,0.100074,
2007-04-13, 02:33:00,VALID,916.415,VALID,0,VALID,100,VALID,0,VALID,20.2607,VALID,101,VALID,0.36849,
2007-04-13, 02:34:00,VALID,916.406,VALID,0,VALID,100,VALID,-0.0169808,VALID,20.2442,VALID,73,VALID,0.319602,
2007-04-13, 02:35:00,VALID,916.404,VALID,0,VALID,100,VALID,-0.0169808,VALID,20.2479,VALID,73,VALID,0.369368,
2007-04-13, 02:36:00,VALID,916.397,VALID,0,VALID,100,VALID,0,VALID,20.2444,VALID,73,VALID,0.365767,
2007-04-13, 02:37:00,VALID,916.408,VALID,0,VALID,100,VALID,-0.0169808,VALID,20.2447,VALID,73,VALID,0.299964,
2007-04-13, 02:38:00,VALID,916.402,VALID,0,VALID,100,VALID,0,VALID,20.2474,VALID,73,VALID,0.314024,
2007-04-13, 02:39:00,VALID,916.41,VALID,0,VALID,100,VALID,-0.0169808,VALID,20.2342,VALID,73,VALID,0.352493,
2007-04-13, 02:40:00,VALID,916.404,VALID,0,VALID,100,VALID,0,VALID,20.2444,VALID,73,VALID,0.415451,
2007-04-13, 02:41:00,VALID,916.398,VALID,0,VALID,100,VALID,-0.0339617,VALID,20.225,VALID,73,VALID,0.498547,
2007-04-13, 02:42:00,VALID,916.397,VALID,0,VALID,100,VALID,0,VALID,20.2147,VALID,73,VALID,0.482922,
2007-04-13, 02:43:00,VALID,916.394,VALID,0,VALID,100,VALID,0,VALID,20.225,VALID,70,VALID,0.446555,
2007-04-13, 02:44:00,VALID,916.38,VALID,0,VALID,100,VALID,0,VALID,20.2152,VALID,47,VALID,0.586301,
2007-04-13, 02:45:00,VALID,916.358,VALID,0,VALID,100,VALID,0,VALID,20.2085,VALID,40,VALID,0.74535,
2007-04-13, 02:46:00,VALID,916.348,VALID,0,VALID,100,VALID,0.0169808,VALID,20.2055,VALID,37,VALID,0.597202,
2007-04-13, 02:47:00,VALID,916.328,VALID,0,VALID,100,VALID,0,VALID,20.186,VALID,37,VALID,0.720703,
2007-04-13, 02:48:00,VALID,916.313,VALID,0,VALID,100,VALID,-0.0169808,VALID,20.1633,VALID,37,VALID,0.614901,
2007-04-13, 02:49:00,VALID,916.302,VALID,0,VALID,100,VALID,-0.0339617,VALID,20.1471,VALID,37,VALID,0.582589,
2007-04-13, 02:50:00,VALID,916.306,VALID,0,VALID,100,VALID,0,VALID,20.1666,VALID,37,VALID,0.5359,
2007-04-13, 02:51:00,VALID,916.319,VALID,0,VALID,100,VALID,0,VALID,20.1598,VALID,37,VALID,0.538872,
2007-04-13, 02:52:00,VALID,916.305,VALID,0,VALID,100,VALID,0,VALID,20.1858,VALID,37,VALID,0.51734,
2007-04-13, 02:53:00,VALID,916.312,VALID,0,VALID,100,VALID,0,VALID,20.186,VALID,37,VALID,0.668056,
2007-04-13, 02:54:00,VALID,916.301,VALID,0,VALID,100,VALID,0,VALID,20.1631,VALID,36,VALID,0.612048,
2007-04-13, 02:55:00,VALID,916.301,VALID,0,VALID,100,VALID,0,VALID,20.1409,VALID,34,VALID,0.533249,
2007-04-13, 02:56:00,VALID,916.292,VALID,0,VALID,100,VALID,-0.0169808,VALID,20.1306,VALID,34,VALID,0.450521,
2007-04-13, 02:57:00,VALID,916.268,VALID,0,VALID,100,VALID,0,VALID,20.1239,VALID,34,VALID,0.349359,
2007-04-13, 02:58:00,VALID,916.277,VALID,0,VALID,100,VALID,0,VALID,20.1274,VALID,34,VALID,0.374092,
2007-04-13, 02:59:00,VALID,916.261,VALID,0,VALID,100,VALID,0.0339617,VALID,20.1271,VALID,34,VALID,0.302912,
2007-04-13, 03:00:00,VALID,916.255,VALID,0,VALID,100,VALID,0.0339617,VALID,20.1371,VALID,34,VALID,0.00635901,
2007-04-13, 03:01:00,VALID,916.249,VALID,0,VALID,100,VALID,0,VALID,20.1531,VALID,34,VALID,0,
2007-04-13, 03:02:00,VALID,916.241,VALID,0,VALID,100,VALID,0.0169808,VALID,20.1688,VALID,34,VALID,0.0615473,
2007-04-13, 03:03:00,VALID,916.226,VALID,0,VALID,100,VALID,-0.0169808,VALID,20.1793,VALID,34,VALID,0.0826671,
2007-04-13, 03:04:00,VALID,916.212,VALID,0,VALID,100,VALID,0,VALID,20.189,VALID,34,VALID,0.403888,
2007-04-13, 03:05:00,VALID,916.201,VALID,0,VALID,100,VALID,0,VALID,20.179,VALID,34,VALID,0.346726,
2007-04-13, 03:06:00,VALID,916.183,VALID,0,VALID,100,VALID,0.0169808,VALID,20.182,VALID,34,VALID,0.302148,
2007-04-13, 03:07:00,VALID,916.175,VALID,0,VALID,100,VALID,0.0169808,VALID,20.1888,VALID,34,VALID,0.534961,
2007-04-13, 03:08:00,VALID,916.178,VALID,0,VALID,100,VALID,0,VALID,20.1623,VALID,33,VALID,0.516992,
2007-04-13, 03:09:00,VALID,916.18,VALID,0,VALID,100,VALID,0.0339617,VALID,20.1628,VALID,33,VALID,0.136896,
2007-04-13, 03:10:00,VALID,916.176,VALID,0,VALID,100,VALID,0.0339617,VALID,20.1596,VALID,33,VALID,0.046875,
2007-04-13, 03:11:00,VALID,916.183,VALID,0,VALID,100,VALID,0,VALID,20.1763,VALID,33,VALID,0.0807884,
2007-04-13, 03:12:00,VALID,916.186,VALID,0,VALID,100,VALID,0,VALID,20.1753,VALID,33,VALID,0.176669,
2007-04-13, 03:13:00,VALID,916.2,VALID,0,VALID,100,VALID,0.0169808,VALID,20.202,VALID,33,VALID,0.0560547,
2007-04-13, 03:14:00,VALID,916.19,VALID,0,VALID,100,VALID,0,VALID,20.2215,VALID,33,VALID,0,
2007-04-13, 03:15:00,VALID,916.203,VALID,0,VALID,100,VALID,0.0169808,VALID,20.2379,VALID,33,VALID,0,
2007-04-13, 03:16:00,VALID,916.215,VALID,0,VALID,100,VALID,0.0169808,VALID,20.2407,VALID,33,VALID,0,
2007-04-13, 03:17:00,VALID,916.236,VALID,0,VALID,100,VALID,0,VALID,20.2302,VALID,33,VALID,0,
2007-04-13, 03:18:00,VALID,916.248,VALID,0,VALID,100,VALID,0.0169808,VALID,20.2409,VALID,33,VALID,0,
2007-04-13, 03:19:00,VALID,916.259,VALID,0,VALID,100,VALID,0.0169808,VALID,20.2339,VALID,33,VALID,0,
2007-04-13, 03:20:00,VALID,916.277,VALID,0,VALID,100,VALID,-0.0169808,VALID,20.2312,VALID,33,VALID,0,
2007-04-13, 03:21:00,VALID,916.285,VALID,0,VALID,100,VALID,0,VALID,20.2312,VALID,33,VALID,0,
2007-04-13, 03:22:00,VALID,916.284,VALID,0,VALID,100,VALID,-0.0169808,VALID,20.2182,VALID,33,VALID,0,
2007-04-13, 03:23:00,VALID,916.289,VALID,0,VALID,100,VALID,0.0169808,VALID,20.2175,VALID,33,VALID,0,
2007-04-13, 03:24:00,VALID,916.295,VALID,0,VALID,100,VALID,0.0169808,VALID,20.2277,VALID,33,VALID,0,
2007-04-13, 03:25:00,VALID,916.293,VALID,0,VALID,100,VALID,0,VALID,20.221,VALID,33,VALID,0,
2007-04-13, 03:26:00,VALID,916.295,VALID,0,VALID,100,VALID,0.0509425,VALID,20.2274,VALID,33,VALID,0,
2007-04-13, 03:27:00,VALID,916.286,VALID,0,VALID,100,VALID,0,VALID,20.2172,VALID,33,VALID,0,
2007-04-13, 03:28:00,VALID,916.3,VALID,0,VALID,100,VALID,0,VALID,20.2245,VALID,33,VALID,0,
2007-04-13, 03:29:00,VALID,916.298,VALID,0,VALID,100,VALID,0.0339617,VALID,20.2344,VALID,33,VALID,0,
2007-04-13, 03:30:00,VALID,916.304,VALID,0,VALID,100,VALID,0,VALID,20.2399,VALID,33,VALID,0.23952,
2007-04-13, 03:31:00,VALID,916.304,VALID,0,VALID,100,VALID,0.0169808,VALID,20.2731,VALID,33,VALID,0.126389,
2007-04-13, 03:32:00,VALID,916.314,VALID,0,VALID,100,VALID,0,VALID,20.2564,VALID,33,VALID,0,
2007-04-13, 03:33:00,VALID,916.317,VALID,0,VALID,100,VALID,0,VALID,20.2637,VALID,33,VALID,0,
2007-04-13, 03:34:00,VALID,916.322,VALID,0,VALID,100,VALID,-0.0339617,VALID,20.2574,VALID,33,VALID,0,
2007-04-13, 03:35:00,VALID,916.331,VALID,0,VALID,100,VALID,0.0169808,VALID,20.2344,VALID,33,VALID,0,
2007-04-13, 03:36:00,VALID,916.343,VALID,0,VALID,100,VALID,0,VALID,20.2247,VALID,33,VALID,0,
2007-04-13, 03:37:00,VALID,916.345,VALID,0,VALID,100,VALID,0,VALID,20.215,VALID,33,VALID,0,
2007-04-13, 03:38:00,VALID,916.345,VALID,0,VALID,100,VALID,-0.0169808,VALID,20.2058,VALID,33,VALID,0,
2007-04-13, 03:39:00,VALID,916.347,VALID,0,VALID,100,VALID,-0.0169808,VALID,20.2023,VALID,33,VALID,0,
2007-04-13, 03:40:00,VALID,916.346,VALID,0,VALID,100,VALID,0.0169808,VALID,20.1758,VALID,33,VALID,0,
2007-04-13, 03:41:00,VALID,916.352,VALID,0,VALID,100,VALID,0,VALID,20.1725,VALID,33,VALID,0,
2007-04-13, 03:42:00,VALID,916.365,VALID,0,VALID,100,VALID,0.0339617,VALID,20.1491,VALID,33,VALID,0,
2007-04-13, 03:43:00,VALID,916.369,VALID,0,VALID,100,VALID,0,VALID,20.1533,VALID,33,VALID,0,
2007-04-13, 03:44:00,VALID,916.375,VALID,0,VALID,100,VALID,-0.0679233,VALID,20.1414,VALID,33,VALID,0,
2007-04-13, 03:45:00,VALID,916.379,VALID,0,VALID,100,VALID,-0.101885,VALID,20.1381,VALID,33,VALID,0,
2007-04-13, 03:46:00,VALID,916.375,VALID,0,VALID,100,VALID,-0.0339617,VALID,20.1279,VALID,33,VALID,0,
2007-04-13, 03:47:00,VALID,916.383,VALID,0,VALID,100,VALID,-0.101885,VALID,20.1184,VALID,33,VALID,0,
2007-04-13, 03:48:00,VALID,916.398,VALID,0,VALID,100,VALID,-0.0679233,VALID,20.0957,VALID,33,VALID,0,